Time,TemperatureF,DewpointF,PressureIn,WindDirection,WindDirectionDegrees,WindSpeedMPH,WindSpeedGustMPH,Humidity,HourlyPrecipIn,Conditions,Clouds,dailyrainin,SoftwareType,DateUTC
2013-01-18 00:00:00,33.4,25.0,29.99,ESE,112,1.0,6.0,71,0.00,,SKC,0.00,VWS V14.01,2013-01-18 05:00:00,
2013-01-18 00:10:00,33.4,24.3,29.99,NE,45,1.0,6.0,69,0.00,,SKC,0.00,VWS V14.01,2013-01-18 05:10:00,
2013-01-18 00:20:00,33.4,23.3,30.00,ENE,68,1.0,4.0,66,0.00,,SKC,0.00,VWS V14.01,2013-01-18 05:20:00,
2013-01-18 00:30:00,33.4,23.3,29.99,ENE,68,0.0,5.0,66,0.00,,SKC,0.00,VWS V14.01,2013-01-18 05:30:00,
2013-01-18 00:40:00,33.5,23.0,30.00,NE,45,0.0,3.0,65,0.00,,SKC,0.00,VWS V14.01,2013-01-18 05:40:00,
2013-01-18 00:50:00,33.5,23.0,29.99,East,90,0.0,5.0,65,0.00,,SKC,0.00,VWS V14.01,2013-01-18 05:50:00,
2013-01-18 01:00:00,33.5,22.6,30.00,NE,45,0.0,4.0,64,0.00,,SKC,0.00,VWS V14.01,2013-01-18 06:00:00,
2013-01-18 01:10:00,33.5,23.0,29.99,ENE,68,0.0,3.0,65,0.00,,SKC,0.00,VWS V14.01,2013-01-18 06:10:00,
2013-01-18 01:20:00,33.7,23.2,30.00,NE,45,0.0,4.0,65,0.00,,SKC,0.00,VWS V14.01,2013-01-18 06:20:00,
2013-01-18 01:30:00,33.7,23.6,30.01,ENE,68,0.0,2.0,66,0.00,,SKC,0.00,VWS V14.01,2013-01-18 06:30:00,
2013-01-18 01:40:00,33.5,24.1,29.99,SE,135,1.0,6.0,68,0.00,,SKC,0.00,VWS V14.01,2013-01-18 06:40:00,
2013-01-18 01:50:00,33.1,25.4,30.04,WSW,248,0.0,3.0,73,0.00,,SKC,0.00,VWS V14.01,2013-01-18 06:50:00,
2013-01-18 02:00:00,32.5,25.8,30.04,SSE,158,0.0,4.0,76,0.00,,SKC,0.00,VWS V14.01,2013-01-18 07:00:00,
2013-01-18 02:10:00,32.1,26.0,30.07,East,90,0.0,4.0,78,0.00,,SKC,0.00,VWS V14.01,2013-01-18 07:10:00,
2013-01-18 02:20:00,31.6,25.9,30.07,East,90,0.0,2.0,79,0.00,,SKC,0.00,VWS V14.01,2013-01-18 07:20:00,
2013-01-18 02:30:00,31.2,25.8,30.04,ESE,112,0.0,4.0,80,0.00,,SKC,0.00,VWS V14.01,2013-01-18 07:30:00,
2013-01-18 02:40:00,30.7,25.6,30.01,ENE,68,0.0,6.0,81,0.00,,SKC,0.00,VWS V14.01,2013-01-18 07:40:00,
2013-01-18 02:50:00,30.3,25.5,30.03,NE,45,0.0,3.0,82,0.00,,SKC,0.00,VWS V14.01,2013-01-18 07:50:00,
2013-01-18 03:00:00,29.8,25.3,30.05,NE,45,0.0,4.0,83,0.00,,SKC,0.00,VWS V14.01,2013-01-18 08:00:00,
2013-01-18 03:10:00,29.5,25.3,30.07,NE,45,0.0,3.0,84,0.00,,SKC,0.00,VWS V14.01,2013-01-18 08:10:00,
2013-01-18 03:20:00,29.3,25.6,30.06,NE,45,0.0,5.0,86,0.00,,SKC,0.00,VWS V14.01,2013-01-18 08:20:00,
2013-01-18 03:30:00,29.1,25.4,30.05,NE,45,0.0,4.0,86,0.00,,SKC,0.00,VWS V14.01,2013-01-18 08:30:00,
2013-01-18 03:40:00,28.8,25.4,30.03,NE,45,0.0,3.0,87,0.00,,SKC,0.00,VWS V14.01,2013-01-18 08:40:00,
2013-01-18 03:50:00,28.7,25.0,30.03,NE,45,0.0,4.0,86,0.00,,SKC,0.00,VWS V14.01,2013-01-18 08:50:00,
2013-01-18 04:00:00,28.8,25.1,30.05,NE,45,0.0,6.0,86,0.00,,SKC,0.00,VWS V14.01,2013-01-18 09:00:00,
2013-01-18 04:10:00,29.0,24.8,30.04,East,90,0.0,4.0,84,0.00,,SKC,0.00,VWS V14.01,2013-01-18 09:10:00,
2013-01-18 04:20:00,29.0,24.2,30.05,East,90,1.0,4.0,82,0.00,,SKC,0.00,VWS V14.01,2013-01-18 09:20:00,
2013-01-18 04:30:00,29.1,24.0,30.04,East,90,1.0,4.0,81,0.00,,SKC,0.00,VWS V14.01,2013-01-18 09:30:00,
2013-01-18 04:40:00,29.4,24.0,30.06,East,90,0.0,4.0,80,0.00,,SKC,0.00,VWS V14.01,2013-01-18 09:40:00,
2013-01-18 04:50:00,29.4,23.4,30.06,East,90,0.0,2.0,78,0.00,,SKC,0.00,VWS V14.01,2013-01-18 09:50:00,
2013-01-18 05:00:00,29.3,23.0,30.07,East,90,1.0,8.0,77,0.00,,SKC,0.00,VWS V14.01,2013-01-18 10:00:00,
2013-01-18 05:10:00,29.1,23.1,30.08,East,90,1.0,4.0,78,0.00,,SKC,0.00,VWS V14.01,2013-01-18 10:10:00,
2013-01-18 05:20:00,28.8,22.5,30.09,East,90,0.0,4.0,77,0.00,,SKC,0.00,VWS V14.01,2013-01-18 10:20:00,
2013-01-18 05:30:00,28.7,22.1,30.10,East,90,1.0,5.0,76,0.00,,SKC,0.00,VWS V14.01,2013-01-18 10:30:00,
2013-01-18 05:40:00,28.5,22.2,30.10,East,90,1.0,4.0,77,0.00,,SKC,0.00,VWS V14.01,2013-01-18 10:40:00,
2013-01-18 05:50:00,28.5,22.2,30.11,East,90,0.0,3.0,77,0.00,,SKC,0.00,VWS V14.01,2013-01-18 10:50:00,
2013-01-18 06:00:00,28.5,21.0,30.12,East,90,1.0,4.0,73,0.00,,SKC,0.00,VWS V14.01,2013-01-18 11:00:00,
2013-01-18 06:10:00,28.4,19.5,30.13,East,90,1.0,4.0,69,0.00,,SKC,0.00,VWS V14.01,2013-01-18 11:10:00,
2013-01-18 06:20:00,28.2,18.7,30.14,East,90,1.0,5.0,67,0.00,,SKC,0.00,VWS V14.01,2013-01-18 11:20:00,
2013-01-18 06:30:00,28.2,18.0,30.15,East,90,2.0,7.0,65,0.00,,SKC,0.00,VWS V14.01,2013-01-18 11:30:00,
2013-01-18 06:40:00,27.9,17.3,30.16,East,90,1.0,5.0,64,0.00,,SKC,0.00,VWS V14.01,2013-01-18 11:40:00,
2013-01-18 06:50:00,27.8,17.2,30.16,East,90,0.0,3.0,64,0.00,,SKC,0.00,VWS V14.01,2013-01-18 11:50:00,
2013-01-18 07:00:00,27.6,17.0,30.17,East,90,0.0,3.0,64,0.00,,SKC,0.00,VWS V14.01,2013-01-18 12:00:00,
2013-01-18 07:10:00,27.5,16.6,30.18,East,90,0.0,4.0,63,0.00,,SKC,0.00,VWS V14.01,2013-01-18 12:10:00,
2013-01-18 07:20:00,27.5,16.9,30.20,East,90,0.0,4.0,64,0.00,,SKC,0.00,VWS V14.01,2013-01-18 12:20:00,
2013-01-18 07:30:00,27.3,16.8,30.21,East,90,1.0,6.0,64,0.00,,SKC,0.00,VWS V14.01,2013-01-18 12:30:00,
2013-01-18 07:40:00,27.2,16.3,30.23,East,90,1.0,8.0,63,0.00,,SKC,0.00,VWS V14.01,2013-01-18 12:40:00,
2013-01-18 07:50:00,27.3,16.4,30.23,East,90,1.0,5.0,63,0.00,,SKC,0.00,VWS V14.01,2013-01-18 12:50:00,
2013-01-18 08:00:00,27.3,16.0,30.23,East,90,1.0,6.0,62,0.00,,SKC,0.00,VWS V14.01,2013-01-18 13:00:00,
2013-01-18 08:10:00,27.2,15.2,30.25,East,90,1.0,7.0,60,0.00,,SKC,0.00,VWS V14.01,2013-01-18 13:10:00,
2013-01-18 08:20:00,26.7,13.9,30.26,East,90,2.0,7.0,58,0.00,,SKC,0.00,VWS V14.01,2013-01-18 13:20:00,
2013-01-18 08:30:00,26.4,12.8,30.27,East,90,1.0,6.0,56,0.00,,SKC,0.00,VWS V14.01,2013-01-18 13:30:00,
2013-01-18 08:40:00,26.3,12.3,30.28,East,90,1.0,7.0,55,0.00,,SKC,0.00,VWS V14.01,2013-01-18 13:40:00,
2013-01-18 08:50:00,26.3,12.8,30.29,East,90,2.0,6.0,56,0.00,,SKC,0.00,VWS V14.01,2013-01-18 13:50:00,
2013-01-18 09:00:00,26.1,11.7,30.30,East,90,3.0,14.0,54,0.00,,SKC,0.00,VWS V14.01,2013-01-18 14:00:00,
2013-01-18 09:10:00,26.0,10.8,30.31,West,270,2.0,14.0,52,0.00,,SKC,0.00,VWS V14.01,2013-01-18 14:10:00,
2013-01-18 09:20:00,25.8,11.0,30.32,ENE,68,1.0,5.0,53,0.00,,SKC,0.00,VWS V14.01,2013-01-18 14:20:00,
2013-01-18 09:30:00,25.7,10.1,30.33,ENE,68,2.0,12.0,51,0.00,,SKC,0.00,VWS V14.01,2013-01-18 14:30:00,
2013-01-18 09:40:00,25.6,9.1,30.33,West,270,2.0,7.0,49,0.00,,SKC,0.00,VWS V14.01,2013-01-18 14:40:00,
2013-01-18 09:50:00,25.6,9.1,30.34,East,90,2.0,7.0,49,0.00,,SKC,0.00,VWS V14.01,2013-01-18 14:50:00,
2013-01-18 10:15:00,25.8,8.8,30.36,West,265,2.0,3.0,48,0.00,,SKC,0.00,VWS V14.01,2013-01-18 15:15:00,
2013-01-18 10:20:00,25.8,8.8,30.36,South,171,4.0,7.0,48,0.00,,SKC,0.00,VWS V14.01,2013-01-18 15:20:00,
2013-01-18 10:25:00,25.8,8.4,30.36,SW,217,2.0,7.0,47,0.00,,SKC,0.00,VWS V14.01,2013-01-18 15:25:00,
2013-01-18 10:30:00,25.8,8.4,30.37,East,87,1.0,7.0,47,0.00,,SKC,0.00,VWS V14.01,2013-01-18 15:30:00,
2013-01-18 10:35:00,26.0,8.1,30.37,NE,56,2.0,4.0,46,0.00,,SKC,0.00,VWS V14.01,2013-01-18 15:35:00,
2013-01-18 10:40:00,26.0,8.1,30.37,East,98,2.0,7.0,46,0.00,,SKC,0.00,VWS V14.01,2013-01-18 15:40:00,
2013-01-18 10:45:00,26.0,8.1,30.37,ESE,103,2.0,6.0,46,0.00,,SKC,0.00,VWS V14.01,2013-01-18 15:45:00,
2013-01-18 10:50:00,25.8,7.4,30.37,WSW,254,2.0,6.0,45,0.00,,SKC,0.00,VWS V14.01,2013-01-18 15:50:00,
2013-01-18 10:56:00,25.8,7.9,30.37,SSE,154,1.0,8.0,46,0.00,,SKC,0.00,VWS V14.01,2013-01-18 15:56:00,
2013-01-18 11:00:00,25.8,8.4,30.36,WSW,250,0.0,8.0,47,0.00,,SKC,0.00,VWS V14.01,2013-01-18 16:00:00,
2013-01-18 11:01:00,25.8,8.4,30.36,WSW,250,0.0,8.0,47,0.00,,SKC,0.00,VWS V14.01,2013-01-18 16:01:00,
2013-01-18 11:06:00,26.0,7.1,30.36,SSW,209,4.0,6.0,44,0.00,,SKC,0.00,VWS V14.01,2013-01-18 16:06:00,
2013-01-18 11:10:00,26.0,7.1,30.36,WSW,239,2.0,8.0,44,0.00,,SKC,0.00,VWS V14.01,2013-01-18 16:10:00,
2013-01-18 11:11:00,26.0,7.1,30.36,WSW,239,3.0,8.0,44,0.00,,SKC,0.00,VWS V14.01,2013-01-18 16:11:00,
2013-01-18 11:16:00,26.1,7.2,30.36,SW,219,2.0,5.0,44,0.00,,SKC,0.00,VWS V14.01,2013-01-18 16:16:00,
2013-01-18 11:20:00,26.1,7.7,30.36,NE,47,2.0,7.0,45,0.00,,SKC,0.00,VWS V14.01,2013-01-18 16:20:00,
2013-01-18 11:21:00,26.1,7.7,30.36,East,86,1.0,7.0,45,0.00,,SKC,0.00,VWS V14.01,2013-01-18 16:21:00,
2013-01-18 11:26:00,26.3,8.4,30.36,WSW,254,1.0,5.0,46,0.00,,SKC,0.00,VWS V14.01,2013-01-18 16:26:00,
2013-01-18 11:30:00,26.3,8.4,30.36,ESE,115,2.0,5.0,46,0.00,,SKC,0.00,VWS V14.01,2013-01-18 16:30:00,
2013-01-18 11:31:00,26.3,8.4,30.36,West,271,6.0,6.0,46,0.00,,SKC,0.00,VWS V14.01,2013-01-18 16:31:00,
2013-01-18 11:36:00,26.3,6.9,30.36,East,100,4.0,7.0,43,0.00,,SKC,0.00,VWS V14.01,2013-01-18 16:36:00,
2013-01-18 11:40:00,26.1,6.2,30.36,South,181,2.0,7.0,42,0.00,,SKC,0.00,VWS V14.01,2013-01-18 16:40:00,
2013-01-18 11:41:00,26.1,6.2,30.36,NW,319,2.0,4.0,42,0.00,,SKC,0.00,VWS V14.01,2013-01-18 16:41:00,
2013-01-18 11:46:00,26.1,6.2,30.37,NE,38,2.0,5.0,42,0.00,,SKC,0.00,VWS V14.01,2013-01-18 16:46:00,
2013-01-18 11:50:00,26.1,7.2,30.37,West,259,0.0,7.0,44,0.00,,SKC,0.00,VWS V14.01,2013-01-18 16:50:00,
2013-01-18 11:51:00,26.1,7.2,30.37,West,261,2.0,5.0,44,0.00,,SKC,0.00,VWS V14.01,2013-01-18 16:51:00,
2013-01-18 11:57:00,26.1,7.2,30.37,WSW,239,1.0,6.0,44,0.00,,SKC,0.00,VWS V14.01,2013-01-18 16:57:00,
2013-01-18 12:00:00,26.1,7.7,30.37,SW,225,0.0,6.0,45,0.00,,SKC,0.00,VWS V14.01,2013-01-18 17:00:00,
2013-01-18 12:02:00,26.1,7.2,30.37,SW,225,4.0,4.0,44,0.00,,SKC,0.00,VWS V14.01,2013-01-18 17:02:00,
2013-01-18 12:07:00,26.1,7.2,30.37,SE,138,1.0,6.0,44,0.00,,SKC,0.00,VWS V14.01,2013-01-18 17:07:00,
2013-01-18 12:10:00,26.3,7.9,30.37,West,265,2.0,6.0,45,0.00,,SKC,0.00,VWS V14.01,2013-01-18 17:10:00,
2013-01-18 12:12:00,26.3,7.9,30.37,WNW,283,0.0,4.0,45,0.00,,SKC,0.00,VWS V14.01,2013-01-18 17:12:00,
2013-01-18 12:17:00,26.4,7.9,30.37,SW,215,3.0,4.0,45,0.00,,SKC,0.00,VWS V14.01,2013-01-18 17:17:00,
2013-01-18 12:20:00,26.4,7.5,30.38,WSW,246,0.0,5.0,44,0.00,,SKC,0.00,VWS V14.01,2013-01-18 17:20:00,
2013-01-18 12:22:00,26.4,7.5,30.38,South,188,0.0,2.0,44,0.00,,SKC,0.00,VWS V14.01,2013-01-18 17:22:00,
2013-01-18 12:27:00,26.4,7.5,30.38,NW,325,0.0,5.0,44,0.00,,SKC,0.00,VWS V14.01,2013-01-18 17:27:00,
2013-01-18 12:30:00,26.6,7.1,30.38,ESE,115,1.0,5.0,43,0.00,,SKC,0.00,VWS V14.01,2013-01-18 17:30:00,
2013-01-18 12:32:00,26.6,7.1,30.38,West,259,2.0,14.0,43,0.00,,SKC,0.00,VWS V14.01,2013-01-18 17:32:00,
2013-01-18 12:37:00,26.6,7.1,30.38,SSW,213,0.0,14.0,43,0.00,,SKC,0.00,VWS V14.01,2013-01-18 17:37:00,
2013-01-18 12:40:00,26.6,8.1,30.38,WSW,237,0.0,14.0,45,0.00,,SKC,0.00,VWS V14.01,2013-01-18 17:40:00,
2013-01-18 12:43:00,26.6,7.6,30.37,South,180,0.0,3.0,44,0.00,,SKC,0.00,VWS V14.01,2013-01-18 17:43:00,
2013-01-18 12:48:00,26.7,7.2,30.37,West,275,2.0,7.0,43,0.00,,SKC,0.00,VWS V14.01,2013-01-18 17:48:00,
2013-01-18 12:50:00,26.7,6.7,30.38,West,267,1.0,7.0,42,0.00,,SKC,0.00,VWS V14.01,2013-01-18 17:50:00,
2013-01-18 12:53:00,26.7,5.6,30.38,WSW,247,3.0,6.0,40,0.00,,SKC,0.00,VWS V14.01,2013-01-18 17:53:00,
2013-01-18 12:58:00,26.7,6.2,30.38,NE,50,0.0,6.0,41,0.00,,SKC,0.00,VWS V14.01,2013-01-18 17:58:00,
2013-01-18 13:00:00,26.7,6.2,30.38,WSW,249,2.0,6.0,41,0.00,,SKC,0.00,VWS V14.01,2013-01-18 18:00:00,
2013-01-18 13:03:00,26.7,6.7,30.38,South,184,0.0,4.0,42,0.00,,SKC,0.00,VWS V14.01,2013-01-18 18:03:00,
2013-01-18 13:08:00,26.7,7.2,30.37,WSW,257,1.0,5.0,43,0.00,,SKC,0.00,VWS V14.01,2013-01-18 18:08:00,
2013-01-18 13:10:00,26.9,7.4,30.37,WSW,251,0.0,5.0,43,0.00,,SKC,0.00,VWS V14.01,2013-01-18 18:10:00,
2013-01-18 13:13:00,26.9,6.9,30.38,South,182,2.0,4.0,42,0.00,,SKC,0.00,VWS V14.01,2013-01-18 18:13:00,
2013-01-18 13:18:00,26.9,7.4,30.37,West,264,4.0,8.0,43,0.00,,SKC,0.00,VWS V14.01,2013-01-18 18:18:00,
2013-01-18 13:20:00,26.9,7.4,30.37,WSW,242,0.0,8.0,43,0.00,,SKC,0.00,VWS V14.01,2013-01-18 18:20:00,
2013-01-18 13:23:00,27.0,7.0,30.38,WSW,248,0.0,5.0,42,0.00,,SKC,0.00,VWS V14.01,2013-01-18 18:23:00,
2013-01-18 13:28:00,27.2,6.6,30.38,West,276,1.0,8.0,41,0.00,,SKC,0.00,VWS V14.01,2013-01-18 18:28:00,
2013-01-18 13:30:00,27.2,6.6,30.38,NW,311,1.0,8.0,41,0.00,,SKC,0.00,VWS V14.01,2013-01-18 18:30:00,
2013-01-18 13:34:00,27.2,6.6,30.38,WSW,247,7.0,7.0,41,0.00,,SKC,0.00,VWS V14.01,2013-01-18 18:34:00,
2013-01-18 13:39:00,27.2,6.1,30.38,SW,233,1.0,7.0,40,0.00,,SKC,0.00,VWS V14.01,2013-01-18 18:39:00,
2013-01-18 13:40:00,27.2,6.1,30.38,WSW,237,2.0,10.0,40,0.00,,SKC,0.00,VWS V14.01,2013-01-18 18:40:00,
2013-01-18 13:44:00,27.2,6.1,30.38,WSW,252,4.0,6.0,40,0.00,,SKC,0.00,VWS V14.01,2013-01-18 18:44:00,
2013-01-18 13:49:00,27.3,6.2,30.38,WNW,286,2.0,6.0,40,0.00,,SKC,0.00,VWS V14.01,2013-01-18 18:49:00,
2013-01-18 13:50:00,27.3,5.6,30.38,WSW,252,2.0,9.0,39,0.00,,SKC,0.00,VWS V14.01,2013-01-18 18:50:00,
2013-01-18 13:54:00,27.3,5.1,30.38,SE,139,5.0,5.0,38,0.00,,SKC,0.00,VWS V14.01,2013-01-18 18:54:00,
2013-01-18 13:59:00,27.2,5.0,30.38,West,275,3.0,5.0,38,0.00,,SKC,0.00,VWS V14.01,2013-01-18 18:59:00,
2013-01-18 14:00:00,27.2,5.5,30.38,South,188,1.0,5.0,39,0.00,,SKC,0.00,VWS V14.01,2013-01-18 19:00:00,
2013-01-18 14:04:00,27.3,6.7,30.38,West,261,2.0,7.0,41,0.00,,SKC,0.00,VWS V14.01,2013-01-18 19:04:00,
2013-01-18 14:09:00,27.6,7.0,30.38,West,269,0.0,12.0,41,0.00,,SKC,0.00,VWS V14.01,2013-01-18 19:09:00,
2013-01-18 14:10:00,27.8,7.7,30.38,West,269,0.0,12.0,42,0.00,,SKC,0.00,VWS V14.01,2013-01-18 19:10:00,
2013-01-18 14:14:00,27.8,6.1,30.38,WSW,250,5.0,15.0,39,0.00,,SKC,0.00,VWS V14.01,2013-01-18 19:14:00,
2013-01-18 14:19:00,27.5,4.7,30.38,SW,227,0.0,15.0,37,0.00,,SKC,0.00,VWS V14.01,2013-01-18 19:19:00,
2013-01-18 14:20:00,27.5,5.2,30.38,SW,229,0.0,15.0,38,0.00,,SKC,0.00,VWS V14.01,2013-01-18 19:20:00,
2013-01-18 14:25:00,27.8,5.5,30.39,SW,227,1.0,2.0,38,0.00,,SKC,0.00,VWS V14.01,2013-01-18 19:25:00,
2013-01-18 14:30:00,27.9,5.0,30.39,SSE,151,0.0,5.0,37,0.00,,SKC,0.00,VWS V14.01,2013-01-18 19:30:00,
2013-01-18 14:35:00,27.6,5.9,30.39,SE,139,2.0,6.0,39,0.00,,SKC,0.00,VWS V14.01,2013-01-18 19:35:00,
2013-01-18 14:40:00,27.6,4.8,30.39,NW,325,2.0,6.0,37,0.00,,SKC,0.00,VWS V14.01,2013-01-18 19:40:00,
2013-01-18 14:45:00,27.6,4.8,30.40,West,260,2.0,6.0,37,0.00,,SKC,0.00,VWS V14.01,2013-01-18 19:45:00,
2013-01-18 14:50:00,27.3,4.5,30.40,SW,228,2.0,8.0,37,0.00,,SKC,0.00,VWS V14.01,2013-01-18 19:50:00,
2013-01-18 14:55:00,27.2,5.0,30.40,SSW,211,1.0,4.0,38,0.00,,SKC,0.00,VWS V14.01,2013-01-18 19:55:00,
2013-01-18 15:00:00,27.2,5.5,30.40,NNW,348,1.0,4.0,39,0.00,,SKC,0.00,VWS V14.01,2013-01-18 20:00:00,
2013-01-18 15:06:00,27.2,5.5,30.41,SE,138,1.0,5.0,39,0.00,,SKC,0.00,VWS V14.01,2013-01-18 20:06:00,
2013-01-18 15:10:00,27.2,6.1,30.41,West,269,0.0,6.0,40,0.00,,SKC,0.00,VWS V14.01,2013-01-18 20:10:00,
2013-01-18 15:11:00,27.2,5.5,30.41,West,269,0.0,6.0,39,0.00,,SKC,0.00,VWS V14.01,2013-01-18 20:11:00,
2013-01-18 15:16:00,27.2,6.6,30.41,East,92,0.0,5.0,41,0.00,,SKC,0.00,VWS V14.01,2013-01-18 20:16:00,
2013-01-18 15:20:00,27.2,6.6,30.41,West,272,4.0,6.0,41,0.00,,SKC,0.00,VWS V14.01,2013-01-18 20:20:00,
2013-01-18 15:21:00,27.2,6.6,30.41,West,270,4.0,6.0,41,0.00,,SKC,0.00,VWS V14.01,2013-01-18 20:21:00,
2013-01-18 15:26:00,27.2,6.6,30.41,WSW,254,1.0,5.0,41,0.00,,SKC,0.00,VWS V14.01,2013-01-18 20:26:00,
2013-01-18 15:30:00,27.2,5.5,30.42,West,263,0.0,8.0,39,0.00,,SKC,0.00,VWS V14.01,2013-01-18 20:30:00,
2013-01-18 15:31:00,27.2,5.5,30.42,West,263,0.0,8.0,39,0.00,,SKC,0.00,VWS V14.01,2013-01-18 20:31:00,
2013-01-18 15:36:00,27.2,6.1,30.42,SW,234,0.0,5.0,40,0.00,,SKC,0.00,VWS V14.01,2013-01-18 20:36:00,
2013-01-18 15:40:00,27.3,6.7,30.42,SW,235,2.0,5.0,41,0.00,,SKC,0.00,VWS V14.01,2013-01-18 20:40:00,
2013-01-18 15:41:00,27.3,6.7,30.42,SW,235,1.0,2.0,41,0.00,,SKC,0.00,VWS V14.01,2013-01-18 20:41:00,
2013-01-18 15:46:00,27.3,6.7,30.42,SW,236,1.0,3.0,41,0.00,,SKC,0.00,VWS V14.01,2013-01-18 20:46:00,
2013-01-18 15:50:00,27.3,6.7,30.42,WSW,239,0.0,4.0,41,0.00,,SKC,0.00,VWS V14.01,2013-01-18 20:50:00,
2013-01-18 15:51:00,27.3,6.7,30.42,WSW,239,0.0,0.0,41,0.00,,SKC,0.00,VWS V14.01,2013-01-18 20:51:00,
2013-01-18 15:56:00,27.2,6.1,30.42,NE,53,3.0,4.0,40,0.00,,SKC,0.00,VWS V14.01,2013-01-18 20:56:00,
2013-01-18 16:00:00,27.2,5.5,30.42,ENE,59,0.0,4.0,39,0.00,,SKC,0.00,VWS V14.01,2013-01-18 21:00:00,
2013-01-18 16:01:00,27.0,5.3,30.42,ENE,59,0.0,0.0,39,0.00,,SKC,0.00,VWS V14.01,2013-01-18 21:01:00,
2013-01-18 16:07:00,27.0,4.8,30.42,WSW,252,0.0,6.0,38,0.00,,SKC,0.00,VWS V14.01,2013-01-18 21:07:00,
2013-01-18 16:10:00,26.9,4.7,30.42,WSW,254,0.0,6.0,38,0.00,,SKC,0.00,VWS V14.01,2013-01-18 21:10:00,
2013-01-18 16:12:00,26.9,4.7,30.42,WSW,255,1.0,1.0,38,0.00,,SKC,0.00,VWS V14.01,2013-01-18 21:12:00,
2013-01-18 16:17:00,26.7,4.5,30.42,West,267,0.0,2.0,38,0.00,,SKC,0.00,VWS V14.01,2013-01-18 21:17:00,
2013-01-18 16:20:00,26.7,5.1,30.41,West,259,2.0,2.0,39,0.00,,SKC,0.00,VWS V14.01,2013-01-18 21:20:00,
2013-01-18 16:22:00,26.6,5.0,30.41,West,259,0.0,2.0,39,0.00,,SKC,0.00,VWS V14.01,2013-01-18 21:22:00,
2013-01-18 16:27:00,26.6,5.0,30.42,WSW,248,0.0,3.0,39,0.00,,SKC,0.00,VWS V14.01,2013-01-18 21:27:00,
2013-01-18 16:30:00,26.4,5.4,30.42,WSW,248,0.0,3.0,40,0.00,,SKC,0.00,VWS V14.01,2013-01-18 21:30:00,
2013-01-18 16:32:00,26.4,5.4,30.42,WSW,248,0.0,0.0,40,0.00,,SKC,0.00,VWS V14.01,2013-01-18 21:32:00,
2013-01-18 16:37:00,26.3,5.8,30.42,WSW,248,0.0,0.0,41,0.00,,SKC,0.00,VWS V14.01,2013-01-18 21:37:00,
2013-01-18 16:40:00,26.3,5.8,30.42,WSW,248,0.0,0.0,41,0.00,,SKC,0.00,VWS V14.01,2013-01-18 21:40:00,
2013-01-18 16:43:00,26.3,6.3,30.42,WSW,248,0.0,0.0,42,0.00,,SKC,0.00,VWS V14.01,2013-01-18 21:43:00,
2013-01-18 16:48:00,26.1,6.2,30.42,WSW,248,0.0,1.0,42,0.00,,SKC,0.00,VWS V14.01,2013-01-18 21:48:00,
2013-01-18 16:50:00,26.0,6.6,30.43,WSW,248,1.0,2.0,43,0.00,,SKC,0.00,VWS V14.01,2013-01-18 21:50:00,
2013-01-18 16:53:00,26.0,6.6,30.43,WSW,248,0.0,1.0,43,0.00,,SKC,0.00,VWS V14.01,2013-01-18 21:53:00,
2013-01-18 16:58:00,25.8,6.9,30.42,WSW,248,0.0,1.0,44,0.00,,SKC,0.00,VWS V14.01,2013-01-18 21:58:00,
2013-01-18 17:00:00,25.7,6.8,30.42,WSW,248,0.0,1.0,44,0.00,,SKC,0.00,VWS V14.01,2013-01-18 22:00:00,
2013-01-18 17:03:00,25.6,6.7,30.42,WSW,248,0.0,0.0,44,0.00,,SKC,0.00,VWS V14.01,2013-01-18 22:03:00,
2013-01-18 17:08:00,25.4,6.5,30.43,WSW,248,0.0,0.0,44,0.00,,SKC,0.00,VWS V14.01,2013-01-18 22:08:00,
2013-01-18 17:10:00,25.4,6.5,30.43,WSW,248,0.0,0.0,44,0.00,,SKC,0.00,VWS V14.01,2013-01-18 22:10:00,
2013-01-18 17:13:00,25.3,6.9,30.43,WSW,248,0.0,0.0,45,0.00,,SKC,0.00,VWS V14.01,2013-01-18 22:13:00,
2013-01-18 17:18:00,25.1,6.8,30.43,WSW,248,0.0,2.0,45,0.00,,SKC,0.00,VWS V14.01,2013-01-18 22:18:00,
2013-01-18 17:20:00,25.1,6.8,30.43,WSW,248,0.0,2.0,45,0.00,,SKC,0.00,VWS V14.01,2013-01-18 22:20:00,
2013-01-18 17:23:00,25.0,7.2,30.43,WSW,248,0.0,0.0,46,0.00,,SKC,0.00,VWS V14.01,2013-01-18 22:23:00,
2013-01-18 17:28:00,24.8,7.0,30.43,WSW,248,0.0,0.0,46,0.00,,SKC,0.00,VWS V14.01,2013-01-18 22:28:00,
2013-01-18 17:30:00,24.8,7.0,30.43,WSW,248,0.0,0.0,46,0.00,,SKC,0.00,VWS V14.01,2013-01-18 22:30:00,
2013-01-18 17:33:00,24.7,6.9,30.44,WSW,248,0.0,0.0,46,0.00,,SKC,0.00,VWS V14.01,2013-01-18 22:33:00,
2013-01-18 17:39:00,24.5,7.2,30.44,WSW,248,0.0,0.0,47,0.00,,SKC,0.00,VWS V14.01,2013-01-18 22:39:00,
2013-01-18 17:40:00,24.4,7.1,30.44,WSW,248,0.0,0.0,47,0.00,,SKC,0.00,VWS V14.01,2013-01-18 22:40:00,
2013-01-18 17:44:00,24.4,7.5,30.44,WSW,248,0.0,0.0,48,0.00,,SKC,0.00,VWS V14.01,2013-01-18 22:44:00,
2013-01-18 17:49:00,24.1,7.7,30.44,WSW,248,0.0,0.0,49,0.00,,SKC,0.00,VWS V14.01,2013-01-18 22:49:00,
2013-01-18 17:50:00,24.1,8.2,30.44,WSW,248,0.0,0.0,50,0.00,,SKC,0.00,VWS V14.01,2013-01-18 22:50:00,
2013-01-18 17:54:00,23.9,8.4,30.45,WSW,248,0.0,0.0,51,0.00,,SKC,0.00,VWS V14.01,2013-01-18 22:54:00,
2013-01-18 17:59:00,23.6,8.1,30.45,WSW,248,0.0,0.0,51,0.00,,SKC,0.00,VWS V14.01,2013-01-18 22:59:00,
2013-01-18 18:00:00,23.6,8.6,30.45,WSW,248,0.0,0.0,52,0.00,,SKC,0.00,VWS V14.01,2013-01-18 23:00:00,
2013-01-18 18:04:00,23.3,8.3,30.45,WSW,248,0.0,0.0,52,0.00,,SKC,0.00,VWS V14.01,2013-01-18 23:04:00,
2013-01-18 18:09:00,23.2,9.0,30.45,WSW,248,0.0,0.0,54,0.00,,SKC,0.00,VWS V14.01,2013-01-18 23:09:00,
2013-01-18 18:10:00,23.0,8.9,30.45,WSW,248,0.0,0.0,54,0.00,,SKC,0.00,VWS V14.01,2013-01-18 23:10:00,
2013-01-18 18:14:00,22.9,9.6,30.45,WSW,248,0.0,0.0,56,0.00,,SKC,0.00,VWS V14.01,2013-01-18 23:14:00,
2013-01-18 18:20:00,22.5,9.6,30.46,WSW,248,0.0,0.0,57,0.00,,SKC,0.00,VWS V14.01,2013-01-18 23:20:00,
2013-01-18 18:25:00,22.2,9.7,30.46,WSW,248,0.0,0.0,58,0.00,,SKC,0.00,VWS V14.01,2013-01-18 23:25:00,
2013-01-18 18:30:00,21.9,9.8,30.46,WSW,248,0.0,0.0,59,0.00,,SKC,0.00,VWS V14.01,2013-01-18 23:30:00,
2013-01-18 18:35:00,21.8,10.1,30.47,WSW,248,0.0,0.0,60,0.00,,SKC,0.00,VWS V14.01,2013-01-18 23:35:00,
2013-01-18 18:40:00,21.6,9.9,30.48,WSW,248,0.0,0.0,60,0.00,,SKC,0.00,VWS V14.01,2013-01-18 23:40:00,
2013-01-18 18:45:00,21.4,9.7,30.48,WSW,248,0.0,0.0,60,0.00,,SKC,0.00,VWS V14.01,2013-01-18 23:45:00,
2013-01-18 18:50:00,21.1,9.4,30.48,WSW,248,0.0,0.0,60,0.00,,SKC,0.00,VWS V14.01,2013-01-18 23:50:00,
2013-01-18 18:55:00,21.0,9.7,30.48,WSW,248,0.0,0.0,61,0.00,,SKC,0.00,VWS V14.01,2013-01-18 23:55:00,
2013-01-18 19:00:00,20.8,9.1,30.49,WSW,248,0.0,0.0,60,0.00,,SKC,0.00,VWS V14.01,2013-01-19 00:00:00,
2013-01-18 19:05:00,20.8,9.1,30.49,WSW,248,0.0,0.0,60,0.00,,SKC,0.00,VWS V14.01,2013-01-19 00:05:00,
2013-01-18 19:10:00,20.6,8.9,30.49,WSW,248,0.0,0.0,60,0.00,,SKC,0.00,VWS V14.01,2013-01-19 00:10:00,
2013-01-18 19:16:00,20.6,8.9,30.49,WSW,248,0.0,0.0,60,0.00,,SKC,0.00,VWS V14.01,2013-01-19 00:16:00,
2013-01-18 19:20:00,20.6,9.3,30.49,WSW,248,0.0,0.0,61,0.00,,SKC,0.00,VWS V14.01,2013-01-19 00:20:00,
2013-01-18 19:21:00,20.6,9.3,30.49,WSW,248,0.0,0.0,61,0.00,,SKC,0.00,VWS V14.01,2013-01-19 00:21:00,
2013-01-18 19:26:00,20.6,9.3,30.48,WSW,248,0.0,0.0,61,0.00,,SKC,0.00,VWS V14.01,2013-01-19 00:26:00,
2013-01-18 19:30:00,20.6,9.3,30.48,WSW,248,0.0,1.0,61,0.00,,SKC,0.00,VWS V14.01,2013-01-19 00:30:00,
2013-01-18 19:31:00,20.6,9.3,30.48,WSW,248,0.0,1.0,61,0.00,,SKC,0.00,VWS V14.01,2013-01-19 00:31:00,
2013-01-18 19:36:00,20.6,9.3,30.48,WSW,248,0.0,1.0,61,0.00,,SKC,0.00,VWS V14.01,2013-01-19 00:36:00,
2013-01-18 19:40:00,20.8,9.5,30.48,WSW,248,0.0,1.0,61,0.00,,SKC,0.00,VWS V14.01,2013-01-19 00:40:00,
2013-01-18 19:41:00,20.8,9.5,30.48,WSW,248,0.0,1.0,61,0.00,,SKC,0.00,VWS V14.01,2013-01-19 00:41:00,
2013-01-18 19:46:00,21.0,9.7,30.48,WSW,248,0.0,0.0,61,0.00,,SKC,0.00,VWS V14.01,2013-01-19 00:46:00,
2013-01-18 19:50:00,21.3,10.0,30.48,NW,305,0.0,5.0,61,0.00,,SKC,0.00,VWS V14.01,2013-01-19 00:50:00,
2013-01-18 19:51:00,21.3,10.0,30.48,NW,305,0.0,0.0,61,0.00,,SKC,0.00,VWS V14.01,2013-01-19 00:51:00,
2013-01-18 19:56:00,21.6,10.2,30.48,NW,305,2.0,2.0,61,0.00,,SKC,0.00,VWS V14.01,2013-01-19 00:56:00,
2013-01-18 20:00:00,21.9,10.2,30.48,NW,305,0.0,3.0,60,0.00,,SKC,0.00,VWS V14.01,2013-01-19 01:00:00,
2013-01-18 20:02:00,21.9,10.2,30.48,NW,305,0.0,0.0,60,0.00,,SKC,0.00,VWS V14.01,2013-01-19 01:02:00,
2013-01-18 20:07:00,22.2,10.4,30.48,WNW,284,0.0,3.0,60,0.00,,SKC,0.00,VWS V14.01,2013-01-19 01:07:00,
2013-01-18 20:10:00,22.4,10.3,30.47,WNW,284,0.0,3.0,59,0.00,,SKC,0.00,VWS V14.01,2013-01-19 01:10:00,
2013-01-18 20:12:00,22.5,10.4,30.47,WNW,284,0.0,0.0,59,0.00,,SKC,0.00,VWS V14.01,2013-01-19 01:12:00,
2013-01-18 20:17:00,22.7,10.2,30.47,WNW,285,4.0,4.0,58,0.00,,SKC,0.00,VWS V14.01,2013-01-19 01:17:00,
2013-01-18 20:20:00,22.9,10.4,30.47,WNW,285,0.0,4.0,58,0.00,,SKC,0.00,VWS V14.01,2013-01-19 01:20:00,
2013-01-18 20:22:00,23.0,10.4,30.47,WNW,285,0.0,0.0,58,0.00,,SKC,0.00,VWS V14.01,2013-01-19 01:22:00,
2013-01-18 20:27:00,23.2,10.6,30.47,WNW,285,0.0,2.0,58,0.00,,SKC,0.00,VWS V14.01,2013-01-19 01:27:00,
2013-01-18 20:30:00,23.3,10.3,30.47,WNW,285,0.0,2.0,57,0.00,,SKC,0.00,VWS V14.01,2013-01-19 01:30:00,
2013-01-18 20:32:00,23.3,10.3,30.47,WNW,285,0.0,3.0,57,0.00,,SKC,0.00,VWS V14.01,2013-01-19 01:32:00,
2013-01-18 20:38:00,23.5,10.5,30.47,WNW,285,0.0,3.0,57,0.00,,SKC,0.00,VWS V14.01,2013-01-19 01:38:00,
2013-01-18 20:40:00,23.6,10.6,30.47,WNW,285,0.0,3.0,57,0.00,,SKC,0.00,VWS V14.01,2013-01-19 01:40:00,
2013-01-18 20:43:00,23.6,10.6,30.47,WNW,285,0.0,1.0,57,0.00,,SKC,0.00,VWS V14.01,2013-01-19 01:43:00,
2013-01-18 20:48:00,23.8,10.8,30.47,WNW,285,0.0,2.0,57,0.00,,SKC,0.00,VWS V14.01,2013-01-19 01:48:00,
2013-01-18 20:50:00,23.8,10.8,30.47,WNW,285,0.0,2.0,57,0.00,,SKC,0.00,VWS V14.01,2013-01-19 01:50:00,
2013-01-18 20:53:00,23.9,10.5,30.47,WNW,285,0.0,0.0,56,0.00,,SKC,0.00,VWS V14.01,2013-01-19 01:53:00,
2013-01-18 21:03:00,23.9,10.5,30.47,WNW,285,0.0,0.0,56,0.00,,SKC,0.00,VWS V14.01,2013-01-19 02:03:00,
2013-01-18 21:08:00,24.1,10.7,30.46,WNW,285,0.0,3.0,56,0.00,,SKC,0.00,VWS V14.01,2013-01-19 02:08:00,
2013-01-18 21:10:00,24.1,10.7,30.46,WNW,285,0.0,3.0,56,0.00,,SKC,0.00,VWS V14.01,2013-01-19 02:10:00,
2013-01-18 21:13:00,24.1,10.7,30.46,WNW,285,0.0,0.0,56,0.00,,SKC,0.00,VWS V14.01,2013-01-19 02:13:00,
2013-01-18 21:18:00,24.1,10.7,30.46,WNW,285,0.0,1.0,56,0.00,,SKC,0.00,VWS V14.01,2013-01-19 02:18:00,
2013-01-18 21:20:00,24.1,10.7,30.46,WNW,285,0.0,1.0,56,0.00,,SKC,0.00,VWS V14.01,2013-01-19 02:20:00,
2013-01-18 21:23:00,24.1,10.7,30.45,WNW,285,0.0,0.0,56,0.00,,SKC,0.00,VWS V14.01,2013-01-19 02:23:00,
2013-01-18 21:28:00,24.1,10.7,30.45,WNW,285,0.0,0.0,56,0.00,,SKC,0.00,VWS V14.01,2013-01-19 02:28:00,
2013-01-18 21:30:00,24.1,10.7,30.45,WNW,285,0.0,0.0,56,0.00,,SKC,0.00,VWS V14.01,2013-01-19 02:30:00,
2013-01-18 21:33:00,24.1,10.7,30.45,WNW,285,0.0,0.0,56,0.00,,SKC,0.00,VWS V14.01,2013-01-19 02:33:00,
2013-01-18 21:38:00,23.9,10.5,30.45,WNW,285,0.0,1.0,56,0.00,,SKC,0.00,VWS V14.01,2013-01-19 02:38:00,
2013-01-18 21:40:00,23.9,10.5,30.46,WNW,285,0.0,1.0,56,0.00,,SKC,0.00,VWS V14.01,2013-01-19 02:40:00,
2013-01-18 21:44:00,23.9,10.5,30.45,WNW,285,0.0,0.0,56,0.00,,SKC,0.00,VWS V14.01,2013-01-19 02:44:00,
2013-01-18 21:49:00,23.9,10.9,30.45,WNW,285,0.0,0.0,57,0.00,,SKC,0.00,VWS V14.01,2013-01-19 02:49:00,
2013-01-18 21:50:00,23.9,10.9,30.45,WNW,285,0.0,0.0,57,0.00,,SKC,0.00,VWS V14.01,2013-01-19 02:50:00,
2013-01-18 21:54:00,23.8,10.8,30.44,WNW,285,0.0,0.0,57,0.00,,SKC,0.00,VWS V14.01,2013-01-19 02:54:00,
2013-01-18 21:59:00,23.8,10.8,30.45,WNW,285,0.0,0.0,57,0.00,,SKC,0.00,VWS V14.01,2013-01-19 02:59:00,
2013-01-18 22:00:00,23.8,10.8,30.45,WNW,285,0.0,0.0,57,0.00,,SKC,0.00,VWS V14.01,2013-01-19 03:00:00,
2013-01-18 22:04:00,23.6,10.6,30.45,WNW,285,0.0,0.0,57,0.00,,SKC,0.00,VWS V14.01,2013-01-19 03:04:00,
2013-01-18 22:10:00,23.6,11.0,30.44,WNW,285,0.0,0.0,58,0.00,,SKC,0.00,VWS V14.01,2013-01-19 03:10:00,
2013-01-18 22:15:00,23.5,10.9,30.44,WNW,285,0.0,0.0,58,0.00,,SKC,0.00,VWS V14.01,2013-01-19 03:15:00,
2013-01-18 22:20:00,23.5,10.9,30.44,WNW,285,0.0,0.0,58,0.00,,SKC,0.00,VWS V14.01,2013-01-19 03:20:00,
2013-01-18 22:25:00,23.3,11.1,30.44,WNW,285,0.0,0.0,59,0.00,,SKC,0.00,VWS V14.01,2013-01-19 03:25:00,
2013-01-18 22:30:00,23.2,11.0,30.43,WNW,285,0.0,0.0,59,0.00,,SKC,0.00,VWS V14.01,2013-01-19 03:30:00,
2013-01-18 22:36:00,23.2,11.4,30.43,WNW,285,0.0,0.0,60,0.00,,SKC,0.00,VWS V14.01,2013-01-19 03:36:00,
2013-01-18 22:40:00,23.0,11.2,30.43,WNW,285,0.0,0.0,60,0.00,,SKC,0.00,VWS V14.01,2013-01-19 03:40:00,
2013-01-18 22:41:00,23.0,11.2,30.43,WNW,285,0.0,0.0,60,0.00,,SKC,0.00,VWS V14.01,2013-01-19 03:41:00,
2013-01-18 22:46:00,22.9,11.5,30.43,WNW,285,0.0,0.0,61,0.00,,SKC,0.00,VWS V14.01,2013-01-19 03:46:00,
2013-01-18 22:50:00,22.5,11.1,30.42,WNW,285,0.0,0.0,61,0.00,,SKC,0.00,VWS V14.01,2013-01-19 03:50:00,
2013-01-18 22:51:00,22.5,11.1,30.42,WNW,285,0.0,0.0,61,0.00,,SKC,0.00,VWS V14.01,2013-01-19 03:51:00,
2013-01-18 22:56:00,22.4,11.4,30.42,WNW,285,0.0,0.0,62,0.00,,SKC,0.00,VWS V14.01,2013-01-19 03:56:00,
2013-01-18 23:00:00,22.2,11.5,30.42,WNW,285,0.0,0.0,63,0.00,,SKC,0.00,VWS V14.01,2013-01-19 04:00:00,
2013-01-18 23:01:00,22.2,11.5,30.42,WNW,285,0.0,0.0,63,0.00,,SKC,0.00,VWS V14.01,2013-01-19 04:01:00,
2013-01-18 23:07:00,21.9,11.2,30.42,WNW,285,0.0,0.0,63,0.00,,SKC,0.00,VWS V14.01,2013-01-19 04:07:00,
2013-01-18 23:10:00,21.8,11.5,30.42,WNW,285,0.0,0.0,64,0.00,,SKC,0.00,VWS V14.01,2013-01-19 04:10:00,
2013-01-18 23:12:00,21.8,11.5,30.42,WNW,285,0.0,0.0,64,0.00,,SKC,0.00,VWS V14.01,2013-01-19 04:12:00,
2013-01-18 23:17:00,21.6,11.7,30.42,WNW,285,0.0,0.0,65,0.00,,SKC,0.00,VWS V14.01,2013-01-19 04:17:00,
2013-01-18 23:20:00,21.4,11.8,30.42,WNW,285,0.0,0.0,66,0.00,,SKC,0.00,VWS V14.01,2013-01-19 04:20:00,
2013-01-18 23:30:00,21.0,11.8,30.42,North,0,0.0,0.0,67,0.00,,SKC,0.00,VWS V14.01,2013-01-19 04:30:00,
2013-01-18 23:40:00,20.8,11.6,30.42,WNW,292,0.0,1.0,67,0.00,,SKC,0.00,VWS V14.01,2013-01-19 04:40:00,
2013-01-18 23:50:00,21.1,12.2,30.42,WNW,292,0.0,2.0,68,0.00,,SKC,0.00,VWS V14.01,2013-01-19 04:50:00,